Torna al catalogo

USA 481

AttivoMilitareVLEO
NORAD 62550·PAYLOAD·🇺🇸 United States

Lanciato Jan 10, 2025 da Vandenberg Space Force Base

Loading…

Prossimi Passaggi (prossime 24 ore)

TLE

ObsoletoSource: Mike McCants

Epoca: Sep 1, 2026, 01:53 UTC

1 62550U 25005U   26244.07866756 0.00000000  00000-0  00000-0 0    06
2 62550  70.0180 226.3570 0003000  21.5264 338.4736 14.96713158    03

Traccia USA 481 in tempo reale con AllMySat

Download on the App Store